This is the latest recevied weather packets stored in our database for station/object WD9U. If no packets are shown the sender has not sent any weather packets the latest 10 day(s).
| Time | Temp. | Humidity | Pressure | Rain* | Wind** | Luminosity | Snow |
|---|---|---|---|---|---|---|---|
| 1777992195 | 3.33° C | 48% | 1008.9 hPa | 0 mm | - | 126 W/m² | - |
| 1777991834 | 3.33° C | 50% | 1008.8 hPa | 0 mm | - | 167 W/m² | - |
| 1777991474 | 3.33° C | 50% | 1008.7 hPa | 0 mm | - | 188 W/m² | - |
| 1777991114 | 3.89° C | 50% | 1008.6 hPa | 0 mm | - | 187 W/m² | - |
| 1777990754 | 3.89° C | 49% | 1008.6 hPa | 0 mm | - | 391 W/m² | - |
| 1777990394 | 3.89° C | 51% | 1008.6 hPa | 0 mm | - | 697 W/m² | - |
| 1777990034 | 3.33° C | 51% | 1008.7 hPa | 0 mm | - | 343 W/m² | - |
| 1777989917 | 3.33° C | 50% | 1008.5 hPa | 0 mm | - | 162 W/m² | - |
| 1777989674 | 3.33° C | 51% | 1008.6 hPa | 0 mm | - | 172 W/m² | - |
| 1777989314 | 3.33° C | 53% | 1008.4 hPa | 0 mm | - | 512 W/m² | - |
| 1777988954 | 3.33° C | 53% | 1008.4 hPa | 0 mm | - | 230 W/m² | - |
| 1777988717 | 2.78° C | 54% | 1008.5 hPa | 0 mm | - | 348 W/m² | - |
| 1777988594 | 2.78° C | 54% | 1008.5 hPa | 0 mm | - | 621 W/m² | - |
| 1777988234 | 2.78° C | 54% | 1008.3 hPa | 0 mm | - | 220 W/m² | - |
| 1777987874 | 2.78° C | 57% | 1008.3 hPa | 0 mm | - | 248 W/m² | - |
| 1777987514 | 2.22° C | 57% | 1008.3 hPa | 0 mm | - | 210 W/m² | - |
| 1777987154 | 2.22° C | 56% | 1008.1 hPa | 0 mm | - | 172 W/m² | - |
| 1777986794 | 2.22° C | 56% | 1008.2 hPa | 0 mm | - | 142 W/m² | - |
| 1777986434 | 2.78° C | 58% | 1008.2 hPa | 0 mm | - | 184 W/m² | - |
| 1777986316 | 2.22° C | 59% | 1008.1 hPa | 0 mm | - | 160 W/m² | - |
| 1777986074 | 2.22° C | 58% | 1008 hPa | 0 mm | - | 169 W/m² | - |
| 1777985713 | 2.22° C | 59% | 1008 hPa | 0 mm | - | 214 W/m² | - |
| 1777985353 | 2.22° C | 61% | 1007.9 hPa | 0 mm | - | 162 W/m² | - |
| 1777985115 | 2.22° C | 61% | 1007.7 hPa | 0 mm | - | 110 W/m² | - |
| 1777984993 | 2.22° C | 61% | 1007.8 hPa | 0 mm | - | 108 W/m² | - |
* Rain latest hour (hover to see other rain measurements)
** Current wind speed in m/s (hover to see current wind gust speed)